Fairbanks, AK

1:36 PM AKST on December 05, 2019 (GMT -0900)
Fairbanks International

Weather History for PAFA - December, 1974

Change the Weather History Date:

Friday, December 13, 1974

  Actual Average Record
Temperature  
Mean Temperature -12 °F -3 °F  
Max Temperature -7 °F 5 °F 42 °F (1967)
Min Temperature -17 °F -12 °F -58 °F (1910)
Degree Days  
Heating Degree Days 77 68  
Month to date heating degree days 881  
Since 1 July heating degree days 5012  
Cooling Degree Days 0 0  
Month to date cooling degree days 0  
Year to date cooling degree days 61  
Moisture  
Dew Point -23 °F    
Average Humidity 56    
Maximum Humidity 62    
Minimum Humidity 49    
Precipitation  
Precipitation 0.00 in 0.02 in 0.31 in (1955)
Month to date precipitation 0.25  
Year to date precipitation 10.42  
Snow  
Snow 0.00 in 0.30 in 5.60 in (1955)
Month to date snowfall 4.9  
Since 1 July snowfall 30.7  
Snow Depth -    
Sea Level Pressure  
Sea Level Pressure 29.55 in    
Wind  
Wind Speed 4 mph (North)    
Max Wind Speed 8 mph    
Max Gust Speed -    
Visibility 12 miles    
Events Snow    
T = Trace of Precipitation, MM = Missing Value Source: NWS Daily Summary

Daily Weather History Graph

Daily Weather History Graph

Search for Another Location

Airport or City:

Astronomy

Dec. 13, 1974 Rise Set
Actual Time 9:48 AM AHST 1:42 PM AHST
Civil Twilight 8:25 AM AHST 3:05 PM AHST
Nautical Twilight 7:14 AM AHST 4:16 PM AHST
Astronomical Twilight 6:13 AM AHST 5:18 PM AHST
Moon 9:54 AM AHST (12/13) 2:03 PM AHST (12/13)
Length of Visible Light 6h 40m
Length of Day
3h 53m
New Moon, 0% of the Moon is Illuminated
Dec 13
New Moon
Dec 21
First Quarter
Dec 28
Full
Jan 4
Last Quarter
Jan 12
New

Hourly Weather History & Observations

Time (AHST) Temp. Windchill Dew Point Humidity Pressure Visibility Wind Dir Wind Speed Gust Speed Precip Events Conditions
12:00 AM -11.9 °F -27.3 °F -24.0 °F 55% 29.45 in 15.0 mi SSW 6.9 mph - N/A   Clear
1:00 AM -11.9 °F -23.8 °F -24.0 °F 55% 29.46 in 10.0 mi SSW 4.6 mph - N/A   Partly Cloudy
2:00 AM -11.0 °F -20.4 °F -24.0 °F 53% 29.48 in 10.0 mi East 3.5 mph - N/A   Mostly Cloudy
2:36 AM - - - N/A% 29.42 in 6.0 mi NE 3.5 mph - N/A   Clear
3:00 AM -11.0 °F -20.4 °F -23.1 °F 55% 29.49 in 10.0 mi NE 3.5 mph - N/A   Ice Crystals
4:00 AM -11.0 °F -22.8 °F -22.0 °F 58% 29.50 in 10.0 mi NE 4.6 mph - N/A   Ice Crystals
5:00 AM -9.9 °F - -20.0 °F 61% 29.51 in 10.0 mi Calm Calm - N/A   Ice Crystals
6:00 AM -9.9 °F -23.4 °F -20.0 °F 61% 29.53 in 10.0 mi NW 5.8 mph - N/A   Ice Crystals
6:13 AM - - - N/A% 29.47 in 10.0 mi NNW 3.5 mph - N/A   Ice Crystals
7:00 AM -9.9 °F -19.2 °F -20.0 °F 61% 29.54 in 10.0 mi North 3.5 mph - N/A   Ice Crystals
7:22 AM - - - N/A% 29.48 in 10.0 mi North - - N/A   Ice Crystals
8:00 AM -9.0 °F -18.2 °F -18.9 °F 62% 29.56 in 10.0 mi NW 3.5 mph - N/A Snow Light Snow
8:13 AM - - - N/A% 29.51 in 10.0 mi WNW 3.5 mph - N/A   Unknown
9:00 AM -9.0 °F -25.2 °F -20.0 °F 59% 29.57 in 40.0 mi North 8.1 mph - N/A   Partly Cloudy
10:00 AM -9.0 °F -23.8 °F -18.9 °F 62% 29.57 in 40.0 mi North 6.9 mph - N/A   Mostly Cloudy
11:00 AM -8.0 °F -16.9 °F -18.0 °F 61% 29.59 in 40.0 mi NNE 3.5 mph - N/A   Mostly Cloudy
12:00 PM -7.1 °F -15.9 °F -17.0 °F 62% 29.60 in 40.0 mi NNE 3.5 mph - N/A   Mostly Cloudy
1:00 PM -7.1 °F -15.9 °F -18.9 °F 56% 29.60 in 40.0 mi North 3.5 mph - N/A   Mostly Cloudy
2:00 PM -9.0 °F - -20.0 °F 59% 29.60 in 40.0 mi Calm Calm - N/A   Partly Cloudy
3:00 PM -9.9 °F - -22.0 °F 55% 29.60 in 20.0 mi Calm Calm - N/A   Partly Cloudy
4:00 PM -11.9 °F -21.5 °F -24.0 °F 55% 29.60 in 10.0 mi North 3.5 mph - N/A   Partly Cloudy
5:00 PM -13.0 °F -25.1 °F -27.0 °F 50% 29.60 in 15.0 mi SW 4.6 mph - N/A   Partly Cloudy
6:00 PM -15.0 °F - -27.9 °F 52% 29.60 in 15.0 mi Calm Calm - N/A   Clear
7:00 PM -15.0 °F -25.0 °F -29.0 °F 49% 29.61 in 15.0 mi NE 3.5 mph - N/A   Clear
8:00 PM -14.1 °F - -26.0 °F 55% 29.61 in 15.0 mi Calm Calm - N/A   Clear
9:00 PM -17.0 °F -29.7 °F -29.9 °F 52% 29.62 in 15.0 mi SSW 4.6 mph - N/A   Clear
10:00 PM -15.0 °F - -27.9 °F 52% 29.62 in 15.0 mi Calm Calm - N/A   Clear
11:00 PM -16.1 °F -28.6 °F -29.9 °F 50% 29.63 in 15.0 mi SW 4.6 mph - N/A   Ice Crystals